Location: Gannavaram
(16.7485°N, 80.7189°E)
Time: 05:49:45
(UTC+00:00)

Daily predictions for brighter satellites

Satellite Brightness Start Highest point End
(mag) Time Altitude Azimuth Time Altitude Azimuth Time Altitude Azimuth
BlueWalker 3 3.5 00:06:55 11° W 00:09:05 17° WSW 00:11:30 10° SSW
SWIFT 1.7 00:07:44 11° WNW 00:10:59 85° NNE 00:14:25 10° ESE
Atlas Centaur 2 3.1 00:05:09 10° SW 00:12:47 64° SSE 00:19:07 10° ENE
ATLAS CENTAUR Rocket 2.4 00:11:01 10° W 00:14:50 52° NNW 00:21:35 10° ENE
Cosmos 1943 3.4 00:11:54 10° SW 00:17:16 48° WNW 00:22:39 10° N
Cosmos 1812 1.9 00:16:20 10° N 00:19:13 86° W 00:22:05 10° S
Cosmos 2278 Rocket 3.4 00:15:36 10° NW 00:19:50 22° WSW 00:24:04 10° SSW
Cosmos 1603 4.1 00:14:17 10° S 00:19:58 71° ESE 00:25:40 10° NNE
